Theta_e
276 277 278 278 279 280 281 283 284 285 287 289 290 292 293 294 296 297 299 301 303 304 305 307 308 309 310 312 313 314 315 316 317 318 319 320 321 322 321 319 317 317
276 276 277 277 278 279 280 281 282 283 285 287 289 290 292 293 294 296 297 299 301 302 304 305 306 307 309 310 311 312 313 314 315 316 317 318 320 321 321 320 318 317
274 275 276 277 277 278 279 281 282 283 284 285 287 288 290 292 293 294 296 297 299 301 302 304 305 306 307 308 309 310 311 312 313 314 315 316 317 319 320 321 320 318
273 274 274 275 276 277 278 280 282 283 284 285 285 287 288 290 292 293 295 296 297 299 301 302 303 305 306 306 307 308 309 310 311 312 313 314 315 316 317 319 320 318
272 272 273 274 275 276 277 279 280 281 283 284 285 286 287 288 290 291 293 294 296 298 299 301 302 303 304 305 306 306 307 308 309 310 311 312 313 314 315 316 317 317
271 272 272 273 274 274 275 277 279 280 281 282 284 285 285 287 289 290 291 293 294 296 298 299 301 302 303 304 305 305 306 307 308 309 310 311 312 313 313 314 315 316
271 271 272 272 273 273 274 276 277 279 279 280 282 284 284 285 287 288 290 291 293 294 296 297 299 300 302 303 304 304 305 305 306 307 308 309 310 311 312 313 314 314
270 271 271 272 273 273 274 275 276 277 278 279 281 283 284 284 285 287 288 289 291 292 294 295 297 298 300 301 302 303 304 304 305 306 307 308 309 310 311 312 312 312
269 270 271 272 272 272 273 274 275 276 277 278 279 281 282 284 284 286 287 288 290 291 292 294 295 296 297 299 300 301 302 303 304 304 305 306 307 309 309 310 310 311
268 269 270 270 270 271 273 274 274 275 276 277 278 279 281 282 283 285 286 287 289 290 291 292 293 295 296 297 299 299 300 301 302 303 303 304 306 307 308 308 309 310
267 267 268 269 269 270 272 273 273 274 275 276 277 278 279 280 282 283 285 286 287 288 290 291 292 293 295 296 297 298 299 300 301 302 302 303 304 305 306 307 307 308
266 266 267 267 268 269 271 272 272 273 274 275 276 277 278 279 280 282 283 285 286 287 289 290 291 292 294 295 296 297 298 299 300 300 301 302 303 303 304 305 306 306
265 265 266 266 267 268 270 271 272 272 273 274 275 276 277 277 278 280 282 284 285 286 288 289 290 291 293 294 295 296 297 298 298 299 300 301 302 302 303 304 304 305
264 264 265 265 265 267 269 270 271 272 273 273 274 275 276 276 277 278 280 282 284 285 287 288 289 291 292 292 293 294 296 296 297 297 298 299 300 301 301 302 303 303
263 263 264 264 265 266 267 269 270 271 272 273 273 274 275 276 277 277 279 281 282 284 285 287 288 290 291 291 292 293 294 296 296 296 297 298 299 299 300 301 302 302
262 263 263 263 264 265 266 268 269 270 271 272 272 273 274 275 276 277 278 279 281 283 284 286 287 289 290 290 291 292 293 295 296 296 296 296 297 298 299 299 300 300
262 262 262 263 263 264 265 266 267 268 269 270 271 272 273 274 275 275 276 278 280 281 283 284 286 287 288 289 290 291 292 293 295 295 295 295 296 296 297 298 298 298
262 262 262 262 262 263 264 265 265 266 267 267 269 270 271 272 273 274 275 276 278 280 282 283 284 285 287 288 289 290 291 292 293 294 294 294 295 295 296 296 296 296
261 261 261 261 261 262 262 263 264 264 265 266 267 268 269 270 271 272 273 275 277 279 280 282 283 284 286 287 288 290 291 291 292 293 293 293 293 294 294 295 295 295
260 260 260 260 260 261 261 262 262 263 264 265 265 266 267 268 269 271 272 274 275 277 279 281 282 283 285 286 288 289 290 291 291 292 292 292 292 292 293 293 293 293
260 260 260 260 260 260 260 261 261 262 262 264 264 265 266 267 268 270 271 273 274 275 277 279 281 282 284 285 287 288 289 290 290 291 291 291 291 291 292 292 292 292
259 259 259 259 260 260 260 260 261 261 262 262 263 264 265 266 267 269 270 271 273 274 276 278 280 281 283 284 286 288 289 289 289 289 290 290 290 291 291 291 291 290
258 258 258 259 259 259 259 260 260 260 261 261 262 263 264 266 267 268 269 270 272 273 275 277 279 281 282 283 285 287 288 288 289 289 288 288 289 290 290 289 289 289
258 258 258 258 259 259 259 259 259 260 260 261 262 262 263 265 266 267 268 269 271 272 274 276 278 280 281 282 284 286 288 288 288 288 288 287 288 288 288 288 288 288
257 257 257 258 258 258 258 258 259 259 259 260 261 262 263 264 265 267 268 269 270 271 272 274 276 278 281 281 283 285 287 288 288 287 287 286 286 287 287 286 286 286
256 257 257 257 257 258 258 258 258 258 259 260 260 261 262 264 265 266 267 268 269 270 272 273 275 278 280 281 282 284 286 287 287 287 286 286 286 286 285 285 285 285
Wind_Speed
31 31 30 27 24 24 23 22 22 19 18 18 18 18 18 18 19 19 19 18 17 15 14 13 11 10 9 8 7 7 7 8 8 8 9 13 19 22 22 20 19 18
33 32 32 30 29 29 27 25 25 22 19 18 18 18 18 19 20 19 19 19 18 17 15 14 13 12 11 9 8 7 7 7 7 7 8 12 16 22 25 25 23 21
34 33 34 33 32 31 30 29 29 26 24 21 19 19 19 19 20 20 20 20 19 18 16 15 14 13 12 11 10 9 8 8 8 8 9 10 13 19 25 27 27 26
33 32 33 34 33 31 32 32 32 30 28 26 22 19 19 20 20 21 21 21 20 20 18 16 15 14 13 12 11 11 10 9 9 9 10 11 12 15 21 25 27 26
31 32 32 34 33 32 33 33 33 32 30 29 27 21 20 21 21 21 22 22 21 21 20 18 16 15 14 13 12 11 11 11 10 10 11 12 12 14 18 22 23 24
31 32 31 33 34 33 34 34 33 32 31 30 29 25 21 20 20 21 22 22 22 21 20 20 18 16 15 14 12 12 12 12 12 12 13 13 14 15 16 18 20 22
32 33 32 33 34 33 34 35 33 33 32 31 30 27 24 20 19 21 21 21 21 21 20 19 18 17 15 14 13 12 12 12 12 13 13 14 15 15 16 16 17 19
31 33 33 33 34 34 35 36 35 34 33 32 31 29 27 22 19 20 22 21 20 20 20 19 18 16 15 14 13 13 12 12 13 13 14 14 15 16 16 16 16 18
29 32 33 34 34 34 36 36 35 35 33 33 32 31 29 24 19 20 23 22 20 20 19 19 18 16 15 14 13 12 12 12 13 13 13 14 15 16 16 16 16 18
29 32 32 33 34 35 36 35 35 35 34 33 32 31 30 27 21 20 22 23 22 22 21 19 19 17 15 14 12 12 11 11 12 13 13 14 14 15 17 16 16 17
30 32 33 33 33 34 35 35 35 35 34 33 32 31 31 28 24 21 22 23 23 23 23 21 21 19 16 15 14 12 11 11 11 12 13 13 14 15 15 16 16 17
28 31 32 32 33 35 36 36 36 35 34 33 32 31 30 28 25 23 21 22 22 23 23 22 22 21 17 15 15 13 12 11 11 12 13 13 14 14 14 14 15 16
26 28 29 30 31 34 36 36 35 35 34 33 32 31 30 28 27 25 22 21 21 22 22 22 22 21 18 17 16 15 13 12 12 12 13 13 14 14 14 14 15 16
26 28 28 30 32 33 35 35 35 35 34 33 32 31 30 29 27 25 23 22 20 21 21 22 21 19 18 19 20 17 14 13 13 13 13 13 14 14 14 13 14 15
28 27 27 31 32 32 34 35 35 35 34 33 33 32 31 30 28 26 24 23 22 21 21 21 19 17 17 20 21 19 16 15 16 15 13 13 14 14 14 13 13 14
27 27 28 29 29 30 34 36 35 35 35 34 33 33 31 30 29 27 25 23 23 22 21 20 19 18 19 20 20 19 17 16 17 17 15 13 14 14 14 13 13 13
23 25 28 29 28 30 33 35 36 35 35 34 34 33 32 31 30 29 26 24 23 23 21 21 20 20 21 21 19 18 17 15 14 16 16 14 14 14 13 13 13 12
21 23 25 25 28 31 33 35 35 34 34 34 34 34 33 32 30 28 26 24 23 22 22 21 22 22 22 21 20 19 18 15 12 13 14 14 14 14 14 13 12 12
20 21 22 23 26 29 31 33 34 33 32 31 31 32 32 31 30 29 27 25 22 22 23 22 23 24 22 22 21 20 18 16 12 11 12 13 14 14 14 14 13 12
19 20 21 23 26 27 27 29 31 32 32 31 29 29 30 30 29 28 27 24 22 22 23 23 23 24 23 22 22 21 19 18 15 13 13 14 15 14 14 14 14 13
19 20 21 22 23 24 25 26 28 29 30 30 28 27 28 28 26 26 25 25 23 23 23 23 24 24 24 24 23 21 20 19 17 15 13 14 15 15 15 15 14 14
19 21 22 21 22 22 22 24 26 26 27 28 27 27 27 26 25 25 24 25 25 23 23 24 25 23 23 24 23 21 21 19 17 16 14 14 15 16 16 16 16 15
20 21 22 22 22 21 21 21 22 24 25 26 26 26 26 25 25 25 25 25 25 24 23 24 25 23 23 24 24 22 22 20 18 17 16 15 16 16 16 17 17 17
20 20 21 22 22 22 22 22 22 23 24 23 22 23 25 26 25 25 26 26 25 25 24 25 26 25 24 25 25 23 23 21 19 18 17 16 16 17 16 17 17 18
18 19 20 21 22 22 22 23 24 23 23 22 21 22 23 24 23 23 25 26 26 28 28 27 28 27 24 25 25 24 24 24 22 20 18 17 17 17 15 16 17 17
17 19 19 21 22 23 23 23 23 23 22 22 22 22 22 23 22 22 24 26 27 29 29 28 27 26 25 26 26 26 25 26 25 22 19 19 18 15 13 15 16 16
Wind_Direction
28 27 27 24 18 17 13 8 6 0 356 0 358 355 353 352 356 360 1 2 2 0 358 356 356 350 343 334 323 310 297 286 275 270 267 254 242 240 244 244 241 243
29 28 27 25 23 23 19 15 15 8 360 359 356 354 354 353 356 358 358 0 2 2 0 358 357 356 352 346 336 326 314 302 288 275 268 259 249 242 240 241 239 233
27 27 26 25 24 23 19 19 21 17 11 7 358 354 355 354 355 356 357 360 1 1 2 0 359 356 355 353 347 340 333 321 309 296 282 265 257 252 244 240 237 230
21 23 23 23 23 22 19 20 21 19 17 13 5 357 355 354 354 354 358 1 0 1 1 0 1 360 356 353 351 347 341 334 325 314 302 285 271 265 256 246 239 232
16 18 19 19 21 20 18 18 19 18 17 14 11 5 355 353 354 352 355 1 3 2 0 358 360 0 356 352 350 347 342 338 335 326 315 302 288 277 266 255 244 236
14 14 15 15 17 17 15 15 16 16 15 12 11 9 359 352 353 351 352 359 3 1 358 356 357 358 356 351 347 347 343 337 336 333 322 309 296 284 272 260 249 241
10 11 11 12 13 13 11 12 13 13 12 10 8 8 4 357 351 349 349 353 357 358 356 355 354 354 355 351 346 346 344 337 335 332 323 311 299 289 278 266 254 247
6 7 8 9 9 9 8 9 9 9 8 6 5 4 3 -0 352 347 348 349 349 351 354 355 353 351 352 352 347 342 340 339 337 331 321 311 301 292 285 275 261 250
2 4 6 6 5 5 5 5 5 5 4 3 2 1 359 359 353 345 347 349 347 346 349 350 349 348 347 347 346 339 336 338 337 332 322 310 300 292 286 277 264 251
358 0 3 3 2 0 360 1 2 2 1 360 359 357 357 357 352 344 346 347 345 344 345 345 344 344 342 342 343 339 335 335 335 332 325 313 301 292 285 277 264 253
354 357 359 359 359 357 356 357 358 357 357 357 356 354 355 355 349 342 341 343 342 341 341 341 342 342 341 340 340 337 334 332 331 329 325 316 305 293 285 276 263 252
350 353 355 355 355 354 354 354 354 353 353 354 353 352 352 351 345 339 336 335 336 337 338 338 340 342 340 338 338 337 334 331 330 328 324 318 309 297 286 275 262 251
346 348 350 350 350 350 351 351 350 350 350 350 350 350 349 347 344 339 334 330 329 332 333 333 336 337 336 337 339 338 333 330 329 326 322 317 308 297 288 277 263 250
342 344 346 347 347 347 348 348 346 346 346 346 347 346 345 344 342 337 332 328 326 326 328 329 331 332 332 337 339 337 334 331 327 324 320 314 305 297 289 278 264 253
340 341 342 344 344 344 345 345 344 343 343 343 343 342 341 340 338 335 331 328 326 325 325 326 327 326 328 334 336 333 331 329 327 323 315 306 300 294 287 279 269 258
338 337 338 340 341 340 341 342 342 341 340 340 340 339 337 336 335 333 330 327 325 324 323 323 321 318 323 330 332 328 325 324 324 320 309 299 292 286 283 280 272 262
333 333 335 337 337 337 338 339 339 339 338 337 337 336 335 333 332 331 328 325 322 320 319 318 314 312 317 325 328 325 321 318 319 315 304 292 284 277 275 274 268 261
328 329 331 331 333 334 335 336 337 337 336 335 334 333 333 331 329 327 325 321 318 316 314 312 309 308 313 320 320 318 316 312 310 309 298 284 275 271 265 263 261 256
326 326 326 326 328 330 331 333 333 333 333 331 329 329 330 328 326 324 321 319 316 312 309 307 306 305 309 315 314 309 309 307 300 298 292 277 269 266 259 255 252 247
324 323 322 322 324 325 326 327 328 328 329 328 326 325 325 323 321 320 317 314 311 308 305 302 301 302 304 309 308 302 300 300 293 289 285 274 268 263 254 250 244 236
321 320 319 318 319 321 320 320 322 323 324 324 322 320 319 317 315 313 311 309 307 305 302 297 295 298 299 301 301 294 291 291 288 283 275 266 263 259 252 247 239 230
318 317 316 315 314 315 313 314 316 316 317 319 317 314 314 312 308 307 305 304 304 302 298 293 291 293 294 296 295 288 283 282 280 276 268 257 255 254 251 245 235 225
315 313 312 311 311 310 307 307 308 308 310 313 312 309 309 307 305 304 302 301 300 297 295 291 288 289 289 290 289 282 274 272 271 268 260 250 248 247 245 241 233 224
310 309 308 307 306 305 304 303 303 302 303 304 301 300 302 302 302 300 299 299 297 293 292 288 285 285 284 284 284 276 266 264 264 259 252 246 243 240 237 234 230 225
304 303 303 303 303 301 300 300 299 299 298 297 294 293 293 295 296 294 293 294 294 292 292 288 283 281 279 278 279 273 260 256 256 250 242 239 236 230 227 225 223 222
300 300 300 301 301 300 298 297 297 297 295 294 292 290 289 288 287 287 286 288 291 291 289 286 280 276 274 271 274 272 259 249 250 246 233 230 230 222 215 215 213 214